This demonstration page uses our WeatherBlox Daily Observations layout. Learn more.

Left ArrowRight Arrow

Hourly Observations for May 25, 2017

Temp ( °F °C ) Dew Point ( °F °C ) Humidity (%) Winds ( mph kmh ) Pressure ( in mb ) Visibility ( mi km ) Precip ( " mm )
12:56 am 00:56 Clear 47 8.5 46 7.6 94 94 Calm 29.67 1005 10 16 0.00 0.00
1:56 am 01:56 Clear 46 7.5 44 6.7 95 95 Calm 29.68 1005 10 16 0.00 0.00
2:56 am 02:56 Clear 46 7.6 45 7 96 96 ESE 3 6 29.66 1004 10 16 0.00 0.00
3:56 am 03:56 Clear 44 6.6 43 5.9 95 95 ESE 3 6 29.66 1004 10 16 0.00 0.00
4:56 am 04:56 Clear 49 9.4 46 7.7 89 89 SSE 3 6 29.66 1004 8 13 0.00 0.00
5:56 am 05:56 Clear 48 8.8 45 7.4 91 91 SSE 5 7 29.65 1004 10 16 0.00 0.00
6:56 am 06:56 Sunny 51 10.4 47 8.5 88 88 SE 8 13 29.65 1004 10 16 0.00 0.00
7:56 am 07:56 Mostly Sunny 55 13 49 9.6 80 80 SE 5 7 29.67 1005 10 16 0.00 0.00
8:56 am 08:56 Mostly Cloudy 58 14.2 49 9.2 72 72 SSE 10 17 29.68 1005 10 16 0.00 0.00
9:56 am 09:56 Mostly Sunny 62 16.9 51 10.3 65 65 SSE 12 19 29.66 1004 10 16 0.00 0.00
10:56 am 10:56 Sunny 67 19.5 49 9.7 53 53 SSE 15 24 29.65 1004 10 16 0.00 0.00
11:56 am 11:56 Sunny 69 20.4 50 9.9 51 51 SSE 16 26 29.64 1004 10 16 0.00 0.00
12:56 pm 12:56 Sunny 71 21.5 49 9.4 46 46 SE 17 28 29.62 1003 10 16 0.00 0.00
1:56 pm 13:56 Sunny 73 22.5 49 9.6 44 44 SE 21 33 29.58 1002 10 16 0.00 0.00
2:56 pm 14:56 Partly Cloudy 73 23 51 10.4 45 45 SSE 20 31 29.55 1001 10 16 0.00 0.00
3:56 pm 15:56 Mostly Sunny 76 24.4 52 11 43 43 SE 14 22 29.54 1001 10 16 0.00 0.00
4:56 pm 16:56 Sunny 76 24.7 52 11.3 43 43 SE 16 26 29.54 1000 10 16 0.00 0.00
5:56 pm 17:56 Mostly Sunny 76 24.6 53 11.9 45 45 SE 15 24 29.53 1000 10 16 0.00 0.00
6:56 pm 18:56 Sunny 74 23.2 53 11.6 48 48 SSE 10 17 29.55 1001 10 16 0.00 0.00
7:45 pm 19:45 Partly Cloudy with Light Rain 73 23 54 12 50 50 SE 15 24 29.56 1001 10 16 0.00 0.00
7:56 pm 19:56 Partly Cloudy with Light Rain 71 21.9 56 13.2 58 58 SSE 8 13 29.57 1001 10 16 0.00 0.03
7:57 pm 19:57 Mostly Sunny 72 22 55 13 57 57 SSE 8 13 29.57 1001 10 16 0.00 0.00
8:56 pm 20:56 Mostly Cloudy 69 20.3 56 13.3 64 64 SE 3 6 29.62 1003 10 16 0.00 0.03
9:56 pm 21:56 Mostly Clear 66 19.1 54 12.4 65 65 ESE 7 11 29.63 1003 10 16 0.00 0.00
10:56 pm 22:56 Partly Cloudy 65 18.6 55 12.6 68 68 ESE 6 9 29.64 1004 10 16 0.00 0.00
11:56 pm 23:56 Mostly Cloudy 65 18.4 55 12.6 69 69 ESE 7 11 29.65 1004 10 16 0.00 0.00

Powered by AerisWeather